KLM55TR EDDF-EGLL

Flight info

Callsign KLM55TR
Flight time 1h 9m
Altitude 32000
Route OBOKA3W/25C OBOKA Z29 TORNU DCT ABNED L980 LOGAN
Aircraft B738/M-SDE2E3FGHIRWXY/LB1

Departure

Time 2026-05-05 12:23
Airport Frankfurt Main Airport (EDDF)

Arrival

Time 2026-05-05 13:32
Airport London Heathrow Airport (EGLL)
Time Latitude Longitude Altitude Speed Heading
2026-05-05 12:00 50.05008 8.58540 344 ft 0 kts 340°
2026-05-05 12:13 50.05000 8.58545 356 ft 2 kts 340°
2026-05-05 12:13 50.04984 8.58553 355 ft 2 kts 343°
2026-05-05 12:13 50.04968 8.58560 354 ft 2 kts 349°
2026-05-05 12:13 50.04952 8.58561 353 ft 2 kts 24°
2026-05-05 12:14 50.04943 8.58548 351 ft 1 kts 68°
2026-05-05 12:14 50.04943 8.58547 351 ft 0 kts 68°
2026-05-05 12:17 50.04950 8.58615 346 ft 10 kts 101°
2026-05-05 12:17 50.04897 8.58681 346 ft 10 kts 160°
2026-05-05 12:18 50.04832 8.58718 349 ft 10 kts 160°
2026-05-05 12:18 50.04769 8.58755 351 ft 10 kts 159°
2026-05-05 12:18 50.04705 8.58770 344 ft 9 kts 184°
2026-05-05 12:18 50.04651 8.58759 344 ft 5 kts 188°
2026-05-05 12:19 50.04586 8.58720 344 ft 15 kts 206°
2026-05-05 12:19 50.04508 8.58618 348 ft 14 kts 224°
2026-05-05 12:19 50.04484 8.58569 350 ft 0 kts 244°
2026-05-05 12:22 50.04477 8.58546 349 ft 9 kts 246°
2026-05-05 12:22 50.04416 8.58291 345 ft 57 kts 250°
2026-05-05 12:23 50.04194 8.57369 353 ft 126 kts 250°
2026-05-05 12:23 50.03809 8.55842 510 ft 168 kts 246°
2026-05-05 12:23 50.03360 8.54087 1153 ft 180 kts 248°
2026-05-05 12:23 50.02921 8.52314 2193 ft 174 kts 249°
2026-05-05 12:24 50.02456 8.50476 2701 ft 193 kts 247°
2026-05-05 12:24 50.01648 8.48754 3164 ft 204 kts 216°
2026-05-05 12:24 50.00353 8.47918 3834 ft 203 kts 189°
2026-05-05 12:24 49.98938 8.47705 4495 ft 206 kts 187°
2026-05-05 12:25 49.97504 8.47416 5092 ft 209 kts 188°
2026-05-05 12:25 49.96049 8.47087 5706 ft 211 kts 191°
2026-05-05 12:25 49.94590 8.46501 6155 ft 227 kts 197°
2026-05-05 12:25 49.93011 8.45740 6481 ft 243 kts 197°
2026-05-05 12:26 49.91509 8.44553 6983 ft 250 kts 223°
2026-05-05 12:26 49.90409 8.42464 7722 ft 251 kts 236°
2026-05-05 12:26 49.89496 8.40137 8376 ft 255 kts 238°
2026-05-05 12:26 49.88692 8.37666 9040 ft 260 kts 254°
2026-05-05 12:27 49.88569 8.34855 9701 ft 265 kts 272°
2026-05-05 12:27 49.88727 8.31975 10230 ft 273 kts 273°
2026-05-05 12:27 49.88905 8.28919 10396 ft 296 kts 274°
2026-05-05 12:27 49.89432 8.25763 10708 ft 315 kts 297°
2026-05-05 12:28 49.90730 8.22916 11150 ft 329 kts 306°
2026-05-05 12:28 49.92132 8.20067 11698 ft 338 kts 306°
2026-05-05 12:28 49.93584 8.17060 11883 ft 358 kts 306°
2026-05-05 12:28 49.95251 8.14104 12331 ft 368 kts 315°
2026-05-05 12:29 49.97175 8.11459 12989 ft 371 kts 319°
2026-05-05 12:29 49.99199 8.08944 13654 ft 375 kts 323°
2026-05-05 12:29 50.01376 8.06663 14232 ft 379 kts 327°
2026-05-05 12:29 50.03597 8.04515 14805 ft 383 kts 327°
2026-05-05 12:30 50.05880 8.02351 15385 ft 386 kts 327°
2026-05-05 12:30 50.08186 8.00156 15942 ft 390 kts 327°
2026-05-05 12:30 50.10414 7.97737 16477 ft 392 kts 317°
2026-05-05 12:30 50.12264 7.94615 17052 ft 393 kts 304°
2026-05-05 12:31 50.13725 7.91021 17634 ft 394 kts 299°
2026-05-05 12:31 50.15148 7.87337 18153 ft 398 kts 299°
2026-05-05 12:31 50.16582 7.83624 18634 ft 401 kts 299°
2026-05-05 12:31 50.18028 7.79897 19139 ft 403 kts 299°
2026-05-05 12:32 50.19488 7.76148 19623 ft 406 kts 299°
2026-05-05 12:32 50.20965 7.72368 20082 ft 409 kts 299°
2026-05-05 12:32 50.22451 7.68572 20541 ft 412 kts 299°
2026-05-05 12:32 50.23951 7.64741 20995 ft 415 kts 299°
2026-05-05 12:33 50.25464 7.60875 21442 ft 418 kts 299°
2026-05-05 12:33 50.26963 7.57043 21875 ft 420 kts 299°
2026-05-05 12:33 50.28492 7.53128 22302 ft 423 kts 299°
2026-05-05 12:33 50.30031 7.49181 22730 ft 426 kts 299°
2026-05-05 12:34 50.31580 7.45203 23146 ft 429 kts 299°
2026-05-05 12:34 50.33139 7.41192 23534 ft 432 kts 299°
2026-05-05 12:34 50.34703 7.37160 23905 ft 434 kts 299°
2026-05-05 12:34 50.36270 7.33116 24277 ft 435 kts 299°
2026-05-05 12:35 50.37841 7.29057 24648 ft 437 kts 298°
2026-05-05 12:35 50.39417 7.24977 24989 ft 439 kts 298°
2026-05-05 12:35 50.40997 7.20880 25331 ft 440 kts 298°
2026-05-05 12:35 50.42585 7.16755 25666 ft 442 kts 298°
2026-05-05 12:36 50.44152 7.12678 26025 ft 443 kts 298°
2026-05-05 12:36 50.45741 7.08541 26425 ft 442 kts 298°
2026-05-05 12:36 50.47322 7.04417 26920 ft 439 kts 297°
2026-05-05 12:36 50.48888 7.00327 27468 ft 435 kts 297°
2026-05-05 12:37 50.50440 6.96268 28004 ft 432 kts 297°
2026-05-05 12:37 50.51984 6.92219 28429 ft 431 kts 297°
2026-05-05 12:37 50.53525 6.88172 28830 ft 431 kts 297°
2026-05-05 12:37 50.55061 6.84132 29283 ft 429 kts 297°
2026-05-05 12:38 50.56598 6.80082 29530 ft 433 kts 297°
2026-05-05 12:38 50.58150 6.75981 29654 ft 438 kts 297°
2026-05-05 12:38 50.59716 6.71834 29804 ft 443 kts 297°
2026-05-05 12:38 50.61293 6.67657 30018 ft 445 kts 296°
2026-05-05 12:39 50.62852 6.63525 30333 ft 444 kts 296°
2026-05-05 12:39 50.64427 6.59349 30694 ft 442 kts 296°
2026-05-05 12:39 50.65994 6.55186 30987 ft 441 kts 296°
2026-05-05 12:39 50.67556 6.51027 31293 ft 441 kts 296°
2026-05-05 12:40 50.69114 6.46873 31632 ft 439 kts 296°
2026-05-05 12:40 50.70666 6.42725 31970 ft 437 kts 296°
2026-05-05 12:40 50.72206 6.38606 32353 ft 434 kts 296°
2026-05-05 12:40 50.73733 6.34513 32672 ft 433 kts 295°
2026-05-05 12:41 50.75259 6.30413 32915 ft 433 kts 295°
2026-05-05 12:41 50.76785 6.26307 33166 ft 433 kts 295°
2026-05-05 12:41 50.78306 6.22209 33506 ft 431 kts 295°
2026-05-05 12:41 50.79822 6.18119 33815 ft 430 kts 295°
2026-05-05 12:42 50.82842 6.09940 33906 ft 436 kts 295°
2026-05-05 12:42 50.85895 6.01659 33886 ft 433 kts 295°
2026-05-05 12:43 50.88916 5.93441 33899 ft 431 kts 295°
2026-05-05 12:43 50.91926 5.85220 33889 ft 431 kts 295°
2026-05-05 12:44 50.94936 5.76971 33878 ft 433 kts 295°
2026-05-05 12:44 50.97960 5.68655 34029 ft 436 kts 295°
2026-05-05 12:45 50.99458 5.64529 34232 ft 436 kts 295°
2026-05-05 12:45 51.00977 5.60334 34311 ft 439 kts 295°
2026-05-05 12:45 51.02500 5.56124 34509 ft 438 kts 295°
2026-05-05 12:45 51.04016 5.51930 34760 ft 436 kts 295°
2026-05-05 12:46 51.05525 5.47748 34967 ft 436 kts 295°
2026-05-05 12:46 51.07032 5.43560 35111 ft 436 kts 295°
2026-05-05 12:46 51.08539 5.39368 35264 ft 437 kts 295°
2026-05-05 12:46 51.10042 5.35179 35437 ft 436 kts 295°
2026-05-05 12:47 51.11543 5.30989 35640 ft 435 kts 295°
2026-05-05 12:47 51.13042 5.26796 35777 ft 436 kts 295°
2026-05-05 12:47 51.14542 5.22594 35882 ft 437 kts 295°
2026-05-05 12:47 51.16045 5.18374 35903 ft 439 kts 295°
2026-05-05 12:48 51.19052 5.09918 35894 ft 437 kts 295°
2026-05-05 12:48 51.22011 5.01573 35899 ft 434 kts 295°
2026-05-05 12:49 51.24964 4.93214 35922 ft 431 kts 295°
2026-05-05 12:49 51.27892 4.84896 35909 ft 429 kts 295°
2026-05-05 12:50 51.30805 4.76591 35934 ft 427 kts 295°
2026-05-05 12:50 51.33725 4.68237 35934 ft 432 kts 295°
2026-05-05 12:51 51.36651 4.59834 35925 ft 438 kts 295°
2026-05-05 12:51 51.39621 4.51282 35920 ft 441 kts 295°
2026-05-05 12:52 51.42602 4.42671 35915 ft 443 kts 295°
2026-05-05 12:52 51.45601 4.33979 35925 ft 448 kts 295°
2026-05-05 12:53 51.48626 4.25179 35921 ft 453 kts 295°
2026-05-05 12:53 51.51661 4.16324 35922 ft 457 kts 295°
2026-05-05 12:54 51.56239 4.02908 35908 ft 456 kts 295°
2026-05-05 12:55 51.59279 3.93961 35912 ft 455 kts 295°
2026-05-05 12:55 51.62307 3.85009 35939 ft 455 kts 295°
2026-05-05 12:56 51.65328 3.76050 35926 ft 455 kts 295°
2026-05-05 12:56 51.68322 3.67138 35948 ft 455 kts 295°
2026-05-05 12:57 51.71337 3.58130 35945 ft 456 kts 295°
2026-05-05 12:57 51.74341 3.49124 35946 ft 456 kts 295°
2026-05-05 12:58 51.77344 3.40086 35965 ft 456 kts 295°
2026-05-05 12:58 51.80313 3.31038 35951 ft 454 kts 292°
2026-05-05 12:58 51.81359 3.26333 35954 ft 449 kts 281°
2026-05-05 12:59 51.81865 3.21390 35962 ft 445 kts 272°
2026-05-05 12:59 51.81694 3.11465 35964 ft 441 kts 264°
2026-05-05 13:00 51.81030 2.96655 35957 ft 440 kts 264°
2026-05-05 13:01 51.80215 2.77047 35829 ft 424 kts 264°
2026-05-05 13:01 51.80019 2.72338 35566 ft 417 kts 264°
2026-05-05 13:01 51.79824 2.67706 35314 ft 409 kts 264°
2026-05-05 13:02 51.79630 2.63146 34981 ft 405 kts 264°
2026-05-05 13:02 51.79434 2.58617 34473 ft 405 kts 263°
2026-05-05 13:02 51.79238 2.54141 34013 ft 404 kts 263°
2026-05-05 13:02 51.79038 2.49624 33468 ft 403 kts 263°
2026-05-05 13:03 51.78838 2.45110 32922 ft 402 kts 263°
2026-05-05 13:03 51.78636 2.40612 32411 ft 402 kts 263°
2026-05-05 13:03 51.78433 2.36107 31869 ft 402 kts 263°
2026-05-05 13:03 51.78227 2.31600 31355 ft 402 kts 263°
2026-05-05 13:04 51.78021 2.27107 30857 ft 401 kts 263°
2026-05-05 13:04 51.77813 2.22610 30376 ft 401 kts 263°
2026-05-05 13:04 51.77604 2.18123 29924 ft 399 kts 263°
2026-05-05 13:04 51.77394 2.13660 29407 ft 398 kts 263°
2026-05-05 13:05 51.77184 2.09217 28900 ft 396 kts 263°
2026-05-05 13:05 51.76972 2.04788 28404 ft 395 kts 263°
2026-05-05 13:05 51.76760 2.00379 27916 ft 393 kts 263°
2026-05-05 13:05 51.76549 1.96038 27443 ft 391 kts 263°
2026-05-05 13:06 51.76335 1.91666 26987 ft 390 kts 263°
2026-05-05 13:06 51.76120 1.87308 26560 ft 388 kts 263°
2026-05-05 13:06 51.75905 1.82983 26142 ft 385 kts 263°
2026-05-05 13:06 51.75690 1.78677 25685 ft 385 kts 263°
2026-05-05 13:07 51.75474 1.74377 25249 ft 384 kts 263°
2026-05-05 13:07 51.75257 1.70088 24814 ft 383 kts 263°
2026-05-05 13:07 51.75038 1.65808 24384 ft 382 kts 263°
2026-05-05 13:07 51.74818 1.61530 23960 ft 381 kts 263°
2026-05-05 13:08 51.74572 1.57265 23544 ft 382 kts 262°
2026-05-05 13:08 51.74297 1.53013 23055 ft 382 kts 262°
2026-05-05 13:08 51.74014 1.48761 22562 ft 381 kts 262°
2026-05-05 13:08 51.73730 1.44522 22050 ft 379 kts 262°
2026-05-05 13:09 51.73449 1.40315 21509 ft 375 kts 263°
2026-05-05 13:09 51.73176 1.36194 20996 ft 371 kts 263°
2026-05-05 13:09 51.72902 1.32076 20487 ft 367 kts 263°
2026-05-05 13:09 51.72631 1.27999 19986 ft 363 kts 263°
2026-05-05 13:10 51.72362 1.23964 19491 ft 360 kts 263°
2026-05-05 13:10 51.72093 1.19962 19002 ft 357 kts 263°
2026-05-05 13:10 51.71825 1.16004 18538 ft 354 kts 263°
2026-05-05 13:10 51.71559 1.12081 18033 ft 351 kts 263°
2026-05-05 13:11 51.71294 1.08186 17499 ft 348 kts 263°
2026-05-05 13:11 51.71030 1.04319 16971 ft 345 kts 263°
2026-05-05 13:11 51.70766 1.00484 16467 ft 343 kts 263°
2026-05-05 13:11 51.70503 0.96691 16003 ft 339 kts 263°
2026-05-05 13:12 51.70242 0.92932 15557 ft 336 kts 264°
2026-05-05 13:12 51.69983 0.89215 15148 ft 331 kts 264°
2026-05-05 13:12 51.69731 0.85598 14742 ft 327 kts 264°
2026-05-05 13:12 51.69475 0.81929 14359 ft 324 kts 264°
2026-05-05 13:13 51.69226 0.78373 13981 ft 322 kts 264°
2026-05-05 13:13 51.68975 0.74795 13586 ft 321 kts 264°
2026-05-05 13:13 51.68722 0.71232 13157 ft 319 kts 264°
2026-05-05 13:13 51.68469 0.67689 12746 ft 317 kts 264°
2026-05-05 13:14 51.68218 0.64175 12325 ft 314 kts 264°
2026-05-05 13:14 51.67968 0.60706 11914 ft 310 kts 264°
2026-05-05 13:14 51.67722 0.57274 11505 ft 306 kts 264°
2026-05-05 13:14 51.67559 0.55020 11240 ft 304 kts 264°
2026-05-05 13:15 51.67314 0.51661 10839 ft 301 kts 264°
2026-05-05 13:15 51.67071 0.48321 10447 ft 297 kts 264°
2026-05-05 13:15 51.66830 0.45034 10071 ft 294 kts 264°
2026-05-05 13:15 51.66590 0.41784 9696 ft 291 kts 264°
2026-05-05 13:16 51.66353 0.38565 9287 ft 287 kts 264°
2026-05-05 13:16 51.66117 0.35380 8897 ft 285 kts 264°
2026-05-05 13:16 51.65882 0.32210 8517 ft 286 kts 264°
2026-05-05 13:16 51.65644 0.29029 8134 ft 285 kts 264°
2026-05-05 13:17 51.65411 0.25902 7759 ft 284 kts 264°
2026-05-05 13:17 51.65175 0.22754 7469 ft 280 kts 264°
2026-05-05 13:17 51.64941 0.19655 7219 ft 278 kts 264°
2026-05-05 13:17 51.64708 0.16578 7030 ft 276 kts 264°
2026-05-05 13:18 51.64490 0.13490 6982 ft 278 kts 265°
2026-05-05 13:18 51.64313 0.10383 6978 ft 279 kts 266°
2026-05-05 13:18 51.64146 0.07267 6966 ft 279 kts 265°
2026-05-05 13:18 51.63981 0.04158 6961 ft 279 kts 265°
2026-05-05 13:19 51.63815 0.01085 6963 ft 278 kts 266°
2026-05-05 13:19 51.63643 -0.02053 6981 ft 278 kts 266°
2026-05-05 13:19 51.63473 -0.05116 6969 ft 271 kts 265°
2026-05-05 13:19 51.63310 -0.08026 6966 ft 258 kts 265°
2026-05-05 13:20 51.63151 -0.10839 6969 ft 247 kts 266°
2026-05-05 13:20 51.62997 -0.13567 6983 ft 244 kts 266°
2026-05-05 13:20 51.62842 -0.16292 7001 ft 245 kts 265°
2026-05-05 13:20 51.62686 -0.19038 6999 ft 247 kts 266°
2026-05-05 13:21 51.62527 -0.21803 7007 ft 248 kts 265°
2026-05-05 13:21 51.62367 -0.24571 6996 ft 249 kts 266°
2026-05-05 13:21 51.62207 -0.27341 7002 ft 248 kts 265°
2026-05-05 13:21 51.62046 -0.30113 6991 ft 249 kts 266°
2026-05-05 13:22 51.61885 -0.32881 6965 ft 248 kts 265°
2026-05-05 13:22 51.61723 -0.35639 6955 ft 247 kts 265°
2026-05-05 13:22 51.61563 -0.38344 6959 ft 246 kts 266°
2026-05-05 13:22 51.61402 -0.41073 6972 ft 244 kts 265°
2026-05-05 13:23 51.61240 -0.43792 6972 ft 244 kts 266°
2026-05-05 13:23 51.61078 -0.46512 6969 ft 244 kts 265°
2026-05-05 13:23 51.60916 -0.49232 6977 ft 244 kts 265°
2026-05-05 13:23 51.60752 -0.51961 6968 ft 245 kts 265°
2026-05-05 13:24 51.60588 -0.54692 6967 ft 245 kts 265°
2026-05-05 13:24 51.60424 -0.57425 6971 ft 245 kts 265°
2026-05-05 13:24 51.60258 -0.60161 6971 ft 246 kts 265°
2026-05-05 13:24 51.60090 -0.62899 6960 ft 246 kts 265°
2026-05-05 13:25 51.59921 -0.65648 6884 ft 249 kts 265°
2026-05-05 13:25 51.59748 -0.68461 6608 ft 254 kts 265°
2026-05-05 13:25 51.59575 -0.71250 6347 ft 253 kts 265°
2026-05-05 13:25 51.59400 -0.74063 6085 ft 253 kts 265°
2026-05-05 13:26 51.59123 -0.76862 5717 ft 256 kts 248°
2026-05-05 13:26 51.58008 -0.79001 5398 ft 251 kts 207°
2026-05-05 13:26 51.56357 -0.79723 5075 ft 246 kts 181°
2026-05-05 13:26 51.54652 -0.79693 4617 ft 247 kts 175°
2026-05-05 13:27 51.52885 -0.79543 3906 ft 257 kts 175°
2026-05-05 13:27 51.51151 -0.79402 3737 ft 240 kts 175°
2026-05-05 13:27 51.49552 -0.79225 3641 ft 219 kts 166°
2026-05-05 13:27 51.48350 -0.78055 3597 ft 201 kts 119°
2026-05-05 13:28 51.47943 -0.75959 3440 ft 198 kts 91°
2026-05-05 13:28 51.47781 -0.73783 3158 ft 200 kts 96°
2026-05-05 13:28 51.47659 -0.71603 2894 ft 194 kts 87°
2026-05-05 13:28 51.47687 -0.69458 2650 ft 191 kts 86°
2026-05-05 13:29 51.47699 -0.67363 2386 ft 184 kts 86°
2026-05-05 13:29 51.47703 -0.65364 2156 ft 174 kts 86°
2026-05-05 13:29 51.47706 -0.63467 1947 ft 166 kts 85°
2026-05-05 13:29 51.47713 -0.61632 1709 ft 163 kts 87°
2026-05-05 13:30 51.47716 -0.59836 1511 ft 160 kts 86°
2026-05-05 13:30 51.47724 -0.58063 1336 ft 157 kts 86°
2026-05-05 13:30 51.47727 -0.56302 1104 ft 159 kts 88°
2026-05-05 13:30 51.47731 -0.54534 852 ft 157 kts 85°
2026-05-05 13:31 51.47737 -0.52814 672 ft 156 kts 87°
2026-05-05 13:31 51.47743 -0.51090 469 ft 154 kts 88°
2026-05-05 13:31 51.47747 -0.49386 248 ft 151 kts 83°
2026-05-05 13:31 51.47748 -0.47764 111 ft 141 kts 92°
2026-05-05 13:32 51.47754 -0.46362 89 ft 106 kts 90°
2026-05-05 13:32 51.47761 -0.45419 84 ft 64 kts 89°
2026-05-05 13:32 51.47746 -0.44923 91 ft 34 kts 117°
2026-05-05 13:32 51.47615 -0.44765 91 ft 18 kts 131°
2026-05-05 13:33 51.47609 -0.44747 89 ft 0 kts 114°
2026-05-05 13:34 51.47589 -0.44688 90 ft 11 kts 133°
2026-05-05 13:34 51.47518 -0.44715 85 ft 13 kts 249°
2026-05-05 13:35 51.47507 -0.44859 86 ft 13 kts 270°
2026-05-05 13:35 51.47506 -0.45044 84 ft 17 kts 270°
2026-05-05 13:35 51.47508 -0.45230 86 ft 17 kts 267°
2026-05-05 13:35 51.47507 -0.45411 87 ft 16 kts 272°
2026-05-05 13:36 51.47509 -0.45584 88 ft 15 kts 265°
2026-05-05 13:36 51.47507 -0.45750 85 ft 15 kts 281°
2026-05-05 13:36 51.47520 -0.45908 85 ft 14 kts 268°
2026-05-05 13:36 51.47517 -0.46062 84 ft 13 kts 269°
2026-05-05 13:37 51.47515 -0.46247 84 ft 18 kts 269°
2026-05-05 13:37 51.47516 -0.46446 84 ft 18 kts 272°
2026-05-05 13:37 51.47515 -0.46638 84 ft 17 kts 270°
2026-05-05 13:37 51.47458 -0.46755 84 ft 15 kts 174°
2026-05-05 13:38 51.47356 -0.46726 84 ft 15 kts 176°
2026-05-05 13:38 51.47260 -0.46699 87 ft 14 kts 139°
2026-05-05 13:38 51.47240 -0.46554 84 ft 13 kts 89°
2026-05-05 13:38 51.47249 -0.46463 84 ft 4 kts 40°
2026-05-05 13:39 51.47286 -0.46430 87 ft 6 kts 26°
2026-05-05 13:39 51.47318 -0.46406 85 ft 0 kts 24°